TimePST,TemperatureF,Dew PointF,Humidity,Sea Level PressureIn,VisibilityMPH,Wind Direction,Wind SpeedMPH,Gust SpeedMPH,PrecipitationIn,Events,Conditions,WindDirDegrees,DateUTC
12:53 AM,46.0,36.0,68,30.21,10.0,WSW,9.2,-,N/A,,Overcast,240,2013-01-30 08:53:00
1:53 AM,46.0,36.0,68,30.22,10.0,SW,11.5,-,N/A,,Overcast,230,2013-01-30 09:53:00
2:53 AM,44.1,36.0,73,30.23,10.0,South,6.9,-,N/A,,Clear,170,2013-01-30 10:53:00
3:53 AM,44.1,36.0,73,30.22,10.0,SW,10.4,-,N/A,,Clear,220,2013-01-30 11:53:00
4:53 AM,44.1,36.0,73,30.21,10.0,SW,10.4,-,N/A,,Clear,220,2013-01-30 12:53:00
5:53 AM,44.1,36.0,73,30.22,10.0,WSW,10.4,-,N/A,,Clear,240,2013-01-30 13:53:00
6:53 AM,44.1,36.0,73,30.21,10.0,WSW,17.3,-,N/A,,Clear,240,2013-01-30 14:53:00
7:53 AM,45.0,36.0,71,30.21,10.0,WSW,11.5,-,N/A,,Clear,240,2013-01-30 15:53:00
8:53 AM,46.9,37.0,68,30.22,10.0,SW,15.0,-,N/A,,Clear,230,2013-01-30 16:53:00
9:53 AM,48.0,37.0,66,30.24,10.0,SW,10.4,-,N/A,,Clear,230,2013-01-30 17:53:00
10:53 AM,50.0,37.9,63,30.25,10.0,SW,15.0,-,N/A,,Clear,230,2013-01-30 18:53:00
12:03 PM,53.6,39.2,58,30.23,10.0,SW,10.4,-,N/A,,Partly Cloudy,230,2013-01-30 20:03:00
12:53 PM,53.1,39.0,59,30.24,10.0,SW,9.2,-,N/A,,Clear,230,2013-01-30 20:53:00
1:53 PM,53.1,39.9,61,30.23,10.0,SSW,9.2,-,N/A,,Clear,210,2013-01-30 21:53:00
2:53 PM,54.0,39.9,59,30.24,10.0,SSW,8.1,-,N/A,,Clear,210,2013-01-30 22:53:00
3:53 PM,52.0,39.9,63,30.25,10.0,WSW,10.4,-,N/A,,Clear,240,2013-01-30 23:53:00
4:53 PM,48.9,39.9,71,30.25,10.0,SSW,11.5,-,N/A,,Clear,210,2013-01-31 00:53:00
5:53 PM,48.9,39.0,69,30.26,10.0,SW,10.4,-,N/A,,Clear,230,2013-01-31 01:53:00
6:53 PM,46.9,39.0,74,30.27,10.0,South,3.5,-,N/A,,Clear,190,2013-01-31 02:53:00
7:53 PM,43.0,37.0,80,30.27,10.0,Calm,Calm,-,N/A,,Clear,0,2013-01-31 03:53:00
8:53 PM,43.0,37.0,80,30.28,10.0,SSW,11.5,-,N/A,,Clear,210,2013-01-31 04:53:00
9:53 PM,45.0,37.9,76,30.29,10.0,South,5.8,-,N/A,,Clear,180,2013-01-31 05:53:00
10:53 PM,45.0,37.9,76,30.29,10.0,South,6.9,-,N/A,,Partly Cloudy,170,2013-01-31 06:53:00
11:53 PM,45.0,39.0,80,30.28,10.0,SSE,4.6,-,N/A,,Overcast,160,2013-01-31 07:53:00